Stündliche Wetter Abrikosovyy

Heute, 17 Juni, Donnerstag

Zeit Temperatur Niederschläge Wind Luftdruck Luftfeuchtigkeit
00:00 +23°C° 0.1 mm 6 m/S 751 mmHg 62%
01:00 +23°C° 0.3 mm 7 m/S 751 mmHg 65%
02:00 +22°C° 0.3 mm 7 m/S 751 mmHg 69%
03:00 +22°C° 0.3 mm 7 m/S 751 mmHg 72%
04:00 +22°C° 0 mm 6 m/S 751 mmHg 72%
05:00 +22°C° 0 mm 6 m/S 751 mmHg 73%
06:00 +22°C° 0 mm 6 m/S 751 mmHg 73%
07:00 +23°C° 0 mm 6 m/S 752 mmHg 70%
08:00 +24°C° 0 mm 6 m/S 752 mmHg 68%
09:00 +27°C° 0 mm 6 m/S 752 mmHg 65%
10:00 +27°C° 0 mm 6 m/S 752 mmHg 63%
11:00 +28°C° 0 mm 6 m/S 753 mmHg 60%
12:00 +29°C° 0 mm 6 m/S 753 mmHg 58%
13:00 +28°C° 0.4 mm 6 m/S 753 mmHg 62%
14:00 +27°C° 0.4 mm 5 m/S 753 mmHg 65%
15:00 +26°C° 0.4 mm 4 m/S 752 mmHg 69%
16:00 +23°C° 6 mm 5 m/S 753 mmHg 77%
17:00 +21°C° 6 mm 6 m/S 754 mmHg 85%
18:00 +19°C° 6 mm 6 m/S 755 mmHg 94%
19:00 +19°C° 3.6 mm 5 m/S 755 mmHg 94%
20:00 +19°C° 3.6 mm 3 m/S 756 mmHg 95%
21:00 +18°C° 3.6 mm 2 m/S 756 mmHg 96%
22:00 +18°C° 0.5 mm 2 m/S 756 mmHg 95%
23:00 +19°C° 0.5 mm 1 m/S 756 mmHg 95%

Morgen, 18 Juni, Freitag

Zeit Temperatur Niederschläge Wind Luftdruck Luftfeuchtigkeit
00:00 +19°C° 0.5 mm 1 m/S 756 mmHg 95%
01:00 +19°C° 0.1 mm 1 m/S 757 mmHg 95%
02:00 +19°C° 0.1 mm 1 m/S 757 mmHg 95%
03:00 +18°C° 0.1 mm 2 m/S 757 mmHg 95%
04:00 +18°C° 0.2 mm 2 m/S 757 mmHg 94%
05:00 +18°C° 0.2 mm 2 m/S 757 mmHg 94%
06:00 +18°C° 0.2 mm 2 m/S 757 mmHg 93%
07:00 +19°C° 0.1 mm 2 m/S 758 mmHg 89%
08:00 +20°C° 0.1 mm 2 m/S 758 mmHg 86%
09:00 +20°C° 0.1 mm 3 m/S 758 mmHg 82%
10:00 +21°C° 0 mm 3 m/S 758 mmHg 79%
11:00 +22°C° 0 mm 4 m/S 758 mmHg 75%
12:00 +23°C° 0 mm 4 m/S 758 mmHg 72%
13:00 +22°C° 0 mm 4 m/S 758 mmHg 73%
14:00 +22°C° 0 mm 5 m/S 758 mmHg 73%
15:00 +21°C° 0 mm 5 m/S 759 mmHg 74%
16:00 +22°C° 0 mm 5 m/S 758 mmHg 73%
17:00 +22°C° 0 mm 4 m/S 758 mmHg 72%
18:00 +22°C° 0 mm 3 m/S 758 mmHg 71%
19:00 +21°C° 0 mm 3 m/S 758 mmHg 74%
20:00 +20°C° 0 mm 4 m/S 758 mmHg 77%
21:00 +19°C° 0 mm 4 m/S 758 mmHg 79%
22:00 +19°C° 0 mm 5 m/S 758 mmHg 75%
23:00 +19°C° 0 mm 6 m/S 758 mmHg 71%

übermorgen, 19 Juni, Samstag

Zeit Temperatur Niederschläge Wind Luftdruck Luftfeuchtigkeit
00:00 +20°C° 0 mm 7 m/S 758 mmHg 67%
01:00 +19°C° 0 mm 6 m/S 758 mmHg 69%
02:00 +19°C° 0 mm 6 m/S 758 mmHg 71%
03:00 +17°C° 0 mm 6 m/S 758 mmHg 72%
04:00 +17°C° 0 mm 6 m/S 758 mmHg 72%
05:00 +17°C° 0 mm 6 m/S 759 mmHg 73%
06:00 +18°C° 0 mm 7 m/S 759 mmHg 73%
07:00 +20°C° 0 mm 7 m/S 759 mmHg 69%
08:00 +22°C° 0 mm 7 m/S 759 mmHg 65%
09:00 +23°C° 0 mm 8 m/S 759 mmHg 61%
10:00 +24°C° 0 mm 8 m/S 759 mmHg 57%
11:00 +27°C° 0 mm 8 m/S 759 mmHg 53%
12:00 +28°C° 0 mm 9 m/S 759 mmHg 49%
13:00 +28°C° 0 mm 8 m/S 759 mmHg 49%
14:00 +29°C° 0 mm 8 m/S 758 mmHg 48%
15:00 +29°C° 0 mm 8 m/S 758 mmHg 48%
16:00 +29°C° 0 mm 8 m/S 758 mmHg 49%
17:00 +28°C° 0 mm 7 m/S 758 mmHg 51%
18:00 +27°C° 0 mm 7 m/S 758 mmHg 52%
19:00 +26°C° 0 mm 7 m/S 758 mmHg 50%
20:00 +24°C° 0 mm 7 m/S 758 mmHg 48%
21:00 +23°C° 0 mm 8 m/S 758 mmHg 47%
22:00 +23°C° 0 mm 8 m/S 758 mmHg 45%
23:00 +22°C° 0 mm 8 m/S 758 mmHg 44%

20 Juni, Sonntag

Zeit Temperatur Niederschläge Wind Luftdruck Luftfeuchtigkeit
00:00 +22°C° 0 mm 7 m/S 758 mmHg 42%
01:00 +21°C° 0 mm 7 m/S 758 mmHg 44%
02:00 +21°C° 0 mm 7 m/S 757 mmHg 46%
03:00 +20°C° 0 mm 7 m/S 757 mmHg 47%
04:00 +20°C° 0 mm 7 m/S 757 mmHg 52%
05:00 +18°C° 0 mm 7 m/S 757 mmHg 57%
06:00 +18°C° 0 mm 7 m/S 757 mmHg 61%
07:00 +21°C° 0 mm 7 m/S 757 mmHg 60%
08:00 +22°C° 0 mm 7 m/S 757 mmHg 58%
09:00 +24°C° 0 mm 7 m/S 757 mmHg 56%
10:00 +26°C° 0 mm 8 m/S 757 mmHg 53%
11:00 +28°C° 0 mm 8 m/S 757 mmHg 49%
12:00 +31°C° 0 mm 9 m/S 756 mmHg 45%
13:00 +32°C° 0 mm 8 m/S 756 mmHg 44%
14:00 +33°C° 0 mm 8 m/S 756 mmHg 43%
15:00 +34°C° 0 mm 8 m/S 755 mmHg 41%
16:00 +33°C° 0 mm 7 m/S 755 mmHg 44%
17:00 +33°C° 0 mm 7 m/S 755 mmHg 46%
18:00 +32°C° 0 mm 7 m/S 754 mmHg 48%
19:00 +29°C° 0 mm 6 m/S 755 mmHg 50%
20:00 +28°C° 0 mm 6 m/S 755 mmHg 52%
21:00 +26°C° 0 mm 5 m/S 755 mmHg 55%
22:00 +25°C° 0 mm 5 m/S 755 mmHg 52%
23:00 +23°C° 0 mm 5 m/S 755 mmHg 49%

21 Juni, Montag

Zeit Temperatur Niederschläge Wind Luftdruck Luftfeuchtigkeit
00:00 +23°C° 0 mm 5 m/S 756 mmHg 46%
01:00 +22°C° 0 mm 4 m/S 755 mmHg 47%
02:00 +21°C° 0 mm 4 m/S 755 mmHg 48%
03:00 +20°C° 0 mm 4 m/S 755 mmHg 49%
04:00 +20°C° 0 mm 5 m/S 755 mmHg 51%
05:00 +20°C° 0 mm 5 m/S 755 mmHg 54%
06:00 +20°C° 0 mm 5 m/S 756 mmHg 56%
07:00 +22°C° 0 mm 6 m/S 756 mmHg 53%
08:00 +24°C° 0 mm 6 m/S 756 mmHg 50%
09:00 +27°C° 0 mm 7 m/S 756 mmHg 46%
10:00 +29°C° 0 mm 7 m/S 755 mmHg 43%
11:00 +32°C° 0 mm 8 m/S 755 mmHg 39%
12:00 +34°C° 0 mm 8 m/S 755 mmHg 36%
13:00 +34°C° 0 mm 8 m/S 755 mmHg 34%
14:00 +35°C° 0 mm 7 m/S 755 mmHg 33%
15:00 +35°C° 0 mm 7 m/S 755 mmHg 32%
16:00 +34°C° 0 mm 6 m/S 754 mmHg 35%
17:00 +33°C° 0 mm 6 m/S 754 mmHg 39%
18:00 +32°C° 0 mm 5 m/S 754 mmHg 42%
19:00 +29°C° 0 mm 5 m/S 754 mmHg 44%
20:00 +28°C° 0 mm 5 m/S 755 mmHg 45%
21:00 +26°C° 0 mm 4 m/S 755 mmHg 47%
22:00 +25°C° 0 mm 4 m/S 755 mmHg 46%
23:00 +23°C° 0 mm 4 m/S 755 mmHg 44%

22 Juni, Dienstag

Zeit Temperatur Niederschläge Wind Luftdruck Luftfeuchtigkeit
00:00 +22°C° 0 mm 4 m/S 755 mmHg 43%
01:00 +21°C° 0 mm 4 m/S 755 mmHg 43%
02:00 +21°C° 0 mm 3 m/S 755 mmHg 42%
03:00 +20°C° 0 mm 3 m/S 755 mmHg 42%
04:00 +20°C° 0 mm 3 m/S 755 mmHg 47%
05:00 +20°C° 0 mm 3 m/S 755 mmHg 52%
06:00 +20°C° 0 mm 4 m/S 756 mmHg 56%
07:00 +22°C° 0 mm 4 m/S 756 mmHg 52%
08:00 +26°C° 0 mm 5 m/S 755 mmHg 47%
09:00 +29°C° 0 mm 5 m/S 755 mmHg 42%
10:00 +30°C° 0 mm 6 m/S 755 mmHg 38%
11:00 +33°C° 0 mm 6 m/S 755 mmHg 34%
12:00 +35°C° 0 mm 6 m/S 755 mmHg 30%
13:00 +35°C° 0 mm 6 m/S 755 mmHg 30%
14:00 +36°C° 0 mm 6 m/S 754 mmHg 30%
15:00 +38°C° 0 mm 6 m/S 754 mmHg 30%
16:00 +36°C° 0 mm 5 m/S 754 mmHg 34%
17:00 +35°C° 0 mm 5 m/S 754 mmHg 39%
18:00 +34°C° 0 mm 4 m/S 753 mmHg 43%
19:00 +32°C° 0 mm 5 m/S 754 mmHg 43%
20:00 +29°C° 0 mm 5 m/S 754 mmHg 44%
21:00 +28°C° 0 mm 5 m/S 754 mmHg 44%
22:00 +27°C° 0 mm 5 m/S 754 mmHg 46%
23:00 +27°C° 0 mm 6 m/S 754 mmHg 48%
Mehr zeigen

Wir brauchen deine Erlaubnis

Meteoprog und unser Service Anbieter werden persönliche Daten aufbewahren, so wie Cookies, Geräte Bezeichnung oder ähnliche Technologien von deinem Gerät und Prozess, so wie Persönliche Daten Inhalte und Werbungen, genauso wie social Media und den Verkehr zu analysieren.

  • Aufbewahrung und/oder Zugang zu deiner Geräte Informationen.

    Cookies, Geräte Bezeichnung oder andere Informationen, können aufbewahrt oder Zugang zu deinem Gerät erhalten, für den Grund, der oben angegeben wird.

  • Personalisierte Werbung und Inhalte, Messungen, Einblick in das Publikum und Produkt Entwicklung.

    Werbungen und Inhalte können personalisiert werden, basierend auf ein Profil. Mehr Daten können besser personalisierte Werbungen und Inhalte hinzufügen. Werbung und Inhalte können gezeigt und gemessen werden. Einblicke über das Publikum, welche die Werbung gesehen haben und den Inhalt, können abgeleitet werden. So wie Daten können genutzt werden, um es zu verbessern oder die Benutzer Erfahrung zu verbessern das System und die Software.

Wenn du “Ich stimme zu” klickst, erlaubst du uns, die Cookies zu benutzen die Geräte Bezeichnung, den Web oder ähnliche Technologien zu benutzen. Deine Settings, können in deinem Gerät bei deinem Browser geändert werden.

Für den bestimmten Zweck, berechtigten Interessen beruhen darauf, mehr als auf den Inhalt. Du kannst mehr darüber in unseren Privaten und Cookie Politik lesen.